Weather Roundup
Issued by NWS Springfield, MO

Home | Current Version | Previous Version | Text Only | Print | Product List | Glossary On
Versions: 1 2 3 4 5 6 7 8 9 10 11 12 13 14 15 16 17 18 19 20 21 22 23 24 25 26 27 28 29 30 31 32 33 34 35 36 37 38 39 40 41 42 43 44 45 46 47 48 49 50
000
NZUS99 KSGF 192307
HRRSGF

HOURLY WEATHER
NATIONAL WEATHER SERVICE SPRINGFIELD MO
600 PM CDT TUE SEP 19 2017

......SGF CWA......

CITY           SKY/WX    TMP DP  RH WIND       PRES   REMARKS
SPRINGFIELD    SUNNY     87  65  47 S15       29.82F
JOPLIN         SUNNY     86  68  54 S13G23    29.79F
WEST PLAINS    SUNNY     87  64  46 S7        29.88F
ROLLA          MOSUNNY   87  65  47 S10       29.85F
BRANSON        MOSUNNY   88  63  42 SE10      29.86F

......SURROUNDING SGF CWA......

CITY           SKY/WX    TMP DP  RH WIND       PRES   REMARKS
CHANUTE        SUNNY     87  72  60 S21G30    29.73S HX  93
COFFEYVILLE    SUNNY     87  72  60 S15G22    29.72F HX  93
EMPORIA        SUNNY     88  71  57 S22G30    29.67S HX  94
GROVE OK       SUNNY     88  70  55 S12       29.80S HX  92
ROGERS AR      MOSUNNY   84  69  60 SE9       29.84F
SILOAM SPRINGS SUNNY     86  68  54 S9        29.83F
HARRISON AR    SUNNY     87  65  47 S12       29.87F
NEAR YELLVILLE SUNNY     87  67  51 VRB5      29.85S HX  90

......KANSAS AND MISSOURI......

CITY           SKY/WX    TMP DP  RH WIND       PRES   REMARKS
KANSAS CTY INT SUNNY     84  70  62 S25G31    29.71F
DOWNTOWN KC    SUNNY     88  70  55 S15G31    29.70F HX  93
COLUMBIA       SUNNY     85  69  58 SE7       29.82F
SEDALIA        MOSUNNY   86  71  60 S13       29.81F HX  91
ST JOSEPH      SUNNY     86  71  60 S22G28    29.68F HX  91
ST LOUIS       MOSUNNY   88  64  44 CALM      29.85F
SPIRIT OF STL  SUNNY     86  69  56 NE7       29.83F HX  90
KIRKSVILLE     SUNNY     84  67  56 S13       29.80F
WICHITA        MOSUNNY   95  67  39 S22G39    29.62S HX  99
TOPEKA         SUNNY     88  70  55 S26G36    29.66S HX  93
OLATHE         SUNNY     83  69  62 S16G28    29.72F

......TENNESSEE......

CITY           SKY/WX    TMP DP  RH WIND       PRES   REMARKS
MEMPHIS        MOSUNNY   88  69  53 SW3       29.89S HX  92
NASHVILLE      MOCLDY    76  68  76 S5        29.94S

......ARKANSAS.......

CITY           SKY/WX    TMP DP  RH WIND       PRES   REMARKS
FAYETTEVILLE   SUNNY     85  71  63 S9        29.83F HX  90
FT SMITH       SUNNY     90  69  50 S8        29.80F HX  94
LITTLE ROCK    MOSUNNY   88  73  61 S10       29.86S HX  95

......OKLAHOMA.......

CITY           SKY/WX    TMP DP  RH WIND       PRES   REMARKS
TULSA          MOSUNNY   90  73  57 S18G26    29.72F HX  98
PONCA CITY     SUNNY     94  67  41 S13G24    29.66F HX  97
MCALESTER      SUNNY     91  71  51 S7G18     29.78F HX  97
OKLAHOMA CITY  MOSUNNY   91  68  46 S20G26    29.72S HX  95

......IOWA............

CITY           SKY/WX    TMP DP  RH WIND       PRES   REMARKS
DES MOINES     MOSUNNY   83  67  58 SE23G29   29.72F
QUAD CITIES    SUNNY     80  64  58 SE9       29.84F

......ILLINOIS........

CITY           SKY/WX    TMP DP  RH WIND       PRES   REMARKS
QUINCY         SUNNY     83  66  56 SE10      29.83F
CHICAGO        PTCLDY    74  62  66 E10       29.91F




USA.gov is the U.S. government's official web portal to all federal, state and local government web resources and services.